Regional Weather Roundup
Issued by NWS

Home | Current Version | Previous Version | Graphics & Text | Print | Product List | Glossary On
Versions: 1 2 3 4 5 6 7 8 9 10 11 12 13 14 15 16 17 18 19 20 21 22 23 24 25 26 27 28 29 30 31 32 33 34 35 36 37 38 39 40 41 42 43 44 45 46 47 48 49 50
000
ASUS43 KLOT 172206
RWRIL

ILLINOIS REGIONAL WEATHER ROUNDUP
NATIONAL WEATHER SERVICE CHICAGO/ROMEOVILLE IL
500 PM CDT WED SEP 17 2014

NOTE: "FAIR" INDICATES FEW OR NO CLOUDS BELOW 12,000 FEET WITH NO
SIGNIFICANT WEATHER AND/OR OBSTRUCTIONS TO VISIBILITY.

* THESE STATIONS ARE NOT UNDER NWS QUALITY CONTROL. THEY ALSO MAY NOT
  REPORT WEATHER SUCH AS PRECIPITATION OR FOG.

ILZ001-002-007-009-015-016-024-172300-
NORTHWEST ILLINOIS

CITY           SKY/WX    TMP DP  RH WIND       PRES   REMARKS
MOLINE         SUNNY     70  50  49 CALM      29.95F
STERLING*      SUNNY     73  52  46 CALM      29.96S
SAVANNA*       SUNNY     70  48  45 CALM      29.96F
$$

ILZ003-004-008-010-011-017-018-172300-
NORTH CENTRAL ILLINOIS

CITY           SKY/WX    TMP DP  RH WIND       PRES   REMARKS
ROCKFORD       MOSUNNY   71  50  47 N3        29.98F
FREEPORT*      SUNNY     68  52  57 CALM      29.99S
ROCHELLE*      SUNNY     70  49  47 CALM      29.97F
DE KALB*       SUNNY     68  49  50 CALM      29.98S
PERU*          SUNNY     68  51  55 W5        29.97F
$$

ILZ005-006-012>014-019>023-172300-
NORTHEAST ILLINOIS

CITY           SKY/WX    TMP DP  RH WIND       PRES   REMARKS
CHICAGO-OHARE  MOSUNNY   70  44  39 CALM      29.97F
CHICAGO-MIDWAY MOSUNNY   70  48  45 E8        29.97F
AURORA         SUNNY     71  45  39 CALM      29.97S
LANSING*       SUNNY     69  47  46 CALM      29.98S
JOLIET*        SUNNY     69  46  42 CALM      29.97F
WAUKEGAN       SUNNY     63  48  58 SE7       29.98S
DUPAGE AIRPORT SUNNY     72  47  40 CALM      29.97F
KANKAKEE*      SUNNY     70  51  50 W5        29.97S
WHEELING       SUNNY     71  45  39 NW7       29.99F
MORRIS*        SUNNY     71  49  45 CALM      29.96F
ROMEOVILLE*    SUNNY     69  46  43 CALM      29.97F
NORTHERLY ISL    N/A     63  48  58 E8          N/A
$$

LMZ740>746-172300-
SOUTHERN LAKE MICHIGAN

STATION/POSITION SKY/WX   TEMP    WIND        PRES    VSBY  WAVE
                          AIR SEA DIR/SP/G                  HT/PER
                          (F)     (DEG/KT/KT) (MB)    (MI)  (FT/S)
SOUTHERN BUOY              62 63  140/  4/  4 1016.0F         1
WAUKEGAN HARBOR            67     140/  7/  9   N/A
HARRISON CRIB              62      80/ 11/ 12   N/A
BURNHAM HARBOR             63      70/  7/ 10   N/A
CALUMET HARBOR             63      50/  9/ 10 1014.2S
MICHIGAN CITY              62      20/  9/ 10   N/A
MICHIGAN CITY 6N           63 66   50/  8/ 10   N/A           1
ST. JOSEPH                 63 67   10/  6/  8   N/A           1
$$

ILZ025>027-034>036-040-047-049-050-058-095>099-172300-
WEST-CENTRAL ILLINOIS

CITY           SKY/WX    TMP DP  RH WIND       PRES   REMARKS
QUINCY         CLOUDY    67  58  72 E7        29.94F
GALESBURG*     MOSUNNY   70  56  59 CALM      29.96F
MACOMB*        PTSUNNY   67  53  59 S3        29.97F
JACKSONVILLE*  PTSUNNY   68  55  61 E6        29.96F
PITTSFIELD*    MOSUNNY   67  58  72 E7        29.95F
$$

ILZ028>032-037-038-041>044-048-051>054-059>061-172300-
CENTRAL ILLINOIS

CITY           SKY/WX    TMP DP  RH WIND       PRES   REMARKS
PONTIAC        MOSUNNY   70  46  43 CALM      29.97S
DECATUR        CLOUDY    66  51  58 SE5       29.97F
PEORIA         PTSUNNY   68  51  54 E5        29.97F
LACON*         CLOUDY    66  51  57 SW3       29.96F
LINCOLN*       CLOUDY    68  51  52 CALM      29.94F
SPRINGFIELD    CLOUDY    66  50  56 SE3       29.96F
TAYLORVILLE    PTSUNNY   63  54  72 S6        29.97S
$$

ILZ033-039-045-046-055>057-062-063-172300-
EAST-CENTRAL ILLINOIS

CITY           SKY/WX    TMP DP  RH WIND       PRES   REMARKS
CHAMPAIGN      MOSUNNY   68  51  54 SE5       29.97F
DANVILLE*      SUNNY     68  48  48 CALM      29.95F
RANTOUL*       MOSUNNY   70  45  40 CALM      29.98F
MATTOON        CLOUDY    65  51  60 CALM      29.96F
PARIS*         PTSUNNY   67  51  58 CALM      29.98F
$$

ILZ079-100>102-172300-
SOUTHWEST ILLINOIS

CITY           SKY/WX    TMP DP  RH WIND       PRES   REMARKS
ALTON          CLOUDY    63  57  82 E7        29.96F
BELLEVILLE     CLOUDY    64  57  77 N8        29.94F
CAHOKIA*       CLOUDY    66  57  72 E6        29.94F
SPARTA*        CLOUDY    67  58  72 SE3       29.95S
$$

ILZ064>066-069>071-074>076-080>082-084>086-088>090-092>094-172300-
SOUTH-CENTRAL ILLINOIS

CITY           SKY/WX    TMP DP  RH WIND       PRES   REMARKS
CARBONDALE     CLOUDY    69  55  60 S3        29.95S
CAIRO*         CLOUDY    70  56  62 S3        29.95S
EFFINGHAM*     RAIN      60  55  85 CALM      29.97F
MARION         PTSUNNY   72  55  56 S6        29.96S
MT. VERNON     PTSUNNY   66  55  68 NE5       29.97F
CENTRALIA*     CLOUDY    64  52  64 E5        29.96F
SALEM*         MOSUNNY   66  58  73 S5        29.97F
METROPOLIS*    PTSUNNY   71  56  60 SW5       29.95S
$$

ILZ067-068-072-073-078-083-087-091-172300-
SOUTHEAST ILLINOIS

CITY           SKY/WX    TMP DP  RH WIND       PRES   REMARKS
LAWRENCEVILLE  CLOUDY    65  55  70 N6        29.97S
FLORA*         DRIZZLE   66  53  62 NE3       29.98R
FAIRFIELD*     MOSUNNY  N/A N/A N/A CALM      29.96F
HARRISBURG*    SUNNY     72  53  50 CALM      29.96S
ROBINSON*      LGT RAIN  65  57  75 N6        29.99R
CARMI*         SUNNY     73  54  51 E5        29.95S
$$

ABBREVIATIONS USED IN REMARKS
   TC - TEMPERATURE IN CELSIUS
  WCI - WIND CHILL INDEX
   HX - HEAT INDEX
  VSB - VISIBILITY
$$




USA.gov is the U.S. government's official web portal to all federal, state and local government web resources and services.